Change the Weather History Date:

Tuesday, January 28, 2014

  Actual Average Record
Temperature  
Mean Temperature 54 °F -  
Max Temperature 61 °F 62 °F 82 °F (1974)
Min Temperature 44 °F 45 °F 20 °F (1986)
Degree Days  
Heating Degree Days 10    
Growing Degree Days 4 (Base 50)    
Moisture  
Dew Point 54 °F    
Average Humidity 91    
Maximum Humidity 100    
Minimum Humidity 87    
Precipitation  
Precipitation 0.06 in - - ()
Sea Level Pressure  
Sea Level Pressure 30.04 in    
Wind  
Wind Speed 5 mph (NNW)    
Max Wind Speed 18 mph    
Max Gust Speed 22 mph    
Visibility 7 miles    
Events Rain    
Averages and records for this station are not official NWS values.
T = Trace of Precipitation, MM = Missing Value Source: NWS Daily Summary

Daily Weather History Graph

Daily Weather History Graph

Search for Another Location

Airport or City:

Trip Planner

Search our weather history database for the weather conditions in past years. The results will help you decide how hot, cold, wet, or windy it might be!

Date:

Astronomy

Jan. 28, 2014 Rise Set
Actual Time 7:17 AM EST 5:59 PM EST
Civil Twilight 6:52 AM EST 6:24 PM EST
Nautical Twilight 6:23 AM EST 6:53 PM EST
Astronomical Twilight 5:55 AM EST 7:21 PM EST
Moon 4:55 AM EST (1/28) 3:50 PM EST (1/28)
Length of Visible Light 11h 32m
Length of Day
10h 41m
Waning Crescent, 7% of the Moon is Illuminated
Jan 28
Waning Crescent
Jan 30
New
Feb 6
First Quarter
Feb 14
Full
Feb 22
Last Quarter

Hourly Weather History & Observations

Time (EST) Temp. Windchill Dew Point Humidity Pressure Visibility Wind Dir Wind Speed Gust Speed Precip Events Conditions
12:58 AM 57.0 °F - 53.1 °F 87% 30.01 in 10.0 mi SW 5.8 mph - N/A   Clear
1:58 AM 57.0 °F - 53.1 °F 87% 30.00 in 10.0 mi WSW 4.6 mph - N/A   Clear
2:58 AM 57.0 °F - 54.0 °F 89% 29.99 in 10.0 mi WSW 5.8 mph - N/A   Partly Cloudy
3:58 AM 57.9 °F - 54.0 °F 87% 30.01 in 10.0 mi West 5.8 mph - N/A   Overcast
4:58 AM 57.0 °F - 54.0 °F 89% 30.01 in 10.0 mi Calm Calm - N/A   Overcast
5:27 AM 57.2 °F - 53.6 °F 88% 30.01 in 10.0 mi Calm Calm - N/A   Overcast
5:35 AM 57.2 °F - 53.6 °F 88% 30.01 in 10.0 mi Calm Calm - N/A   Overcast
5:58 AM 57.0 °F - 54.0 °F 89% 30.01 in 10.0 mi Calm Calm - N/A   Overcast
6:05 AM 57.2 °F - 53.6 °F 88% 30.02 in 10.0 mi Calm Calm - N/A   Overcast
6:17 AM 57.2 °F - 53.6 °F 88% 30.02 in 10.0 mi Calm Calm - N/A   Overcast
6:58 AM 57.0 °F - 55.0 °F 93% 30.04 in 10.0 mi Calm Calm - N/A   Overcast
7:18 AM 57.2 °F - 53.6 °F 88% 30.04 in 10.0 mi Calm Calm - N/A   Overcast
7:29 AM 57.2 °F - 55.4 °F 94% 30.05 in 10.0 mi Calm Calm - N/A   Overcast
7:37 AM 57.2 °F - 55.4 °F 94% 30.05 in 9.0 mi Calm Calm - N/A   Overcast
7:58 AM 57.9 °F - 55.0 °F 90% 30.05 in 10.0 mi SSE 3.5 mph - N/A   Mostly Cloudy
8:39 AM 59.0 °F - 55.4 °F 88% 30.06 in 10.0 mi SSE 3.5 mph - N/A   Mostly Cloudy
8:50 AM 60.8 °F - 57.2 °F 88% 30.05 in 10.0 mi Calm Calm - N/A   Mostly Cloudy
8:58 AM 60.1 °F - 57.0 °F 90% 30.06 in 10.0 mi Calm Calm - N/A   Mostly Cloudy
9:07 AM 60.8 °F - 57.2 °F 88% 30.07 in 4.0 mi Calm Calm - N/A   Overcast
9:58 AM 61.0 °F - 57.9 °F 90% 30.07 in 4.0 mi NE 3.5 mph - 0.00 in Rain Light Rain
10:58 AM 60.1 °F - 57.9 °F 93% 30.09 in 4.0 mi North 8.1 mph - 0.00 in   Overcast
11:51 AM 60.8 °F - 57.2 °F 88% 30.07 in 4.0 mi North 8.1 mph - N/A   Overcast
11:58 AM 61.0 °F - 57.0 °F 87% 30.07 in 4.0 mi North 6.9 mph - N/A   Overcast
12:56 PM 59.0 °F - 55.4 °F 88% 30.05 in 2.5 mi North 10.4 mph - N/A   Overcast
12:58 PM 59.0 °F - 55.9 °F 90% 30.05 in 2.5 mi North 10.4 mph - N/A   Overcast
1:58 PM 57.0 °F - 55.0 °F 93% 30.03 in 2.5 mi North 8.1 mph - N/A   Overcast
2:05 PM 57.2 °F - 55.4 °F 94% 30.03 in 3.0 mi North 11.5 mph - N/A   Overcast
2:38 PM 55.4 °F - 53.6 °F 94% 30.02 in 2.0 mi North 12.7 mph - N/A   Overcast
2:58 PM 55.9 °F - 54.0 °F 93% 30.01 in 2.0 mi North 10.4 mph - N/A   Overcast
3:58 PM 55.9 °F - 54.0 °F 93% 30.01 in 2.0 mi North 10.4 mph - 0.00 in   Overcast
4:58 PM 54.0 °F - 53.1 °F 97% 30.02 in 2.0 mi NNW 12.7 mph - 0.00 in Rain Light Rain
4:59 PM 53.6 °F - 53.6 °F 100% 30.02 in 4.0 mi NNW 13.8 mph - 0.00 in Rain Light Rain
5:58 PM 53.1 °F - 52.0 °F 96% 30.03 in 3.0 mi North 13.8 mph - 0.00 in   Overcast
6:16 PM 53.6 °F - 51.8 °F 94% 30.03 in 10.0 mi North 11.5 mph - N/A   Overcast
6:58 PM 53.1 °F - 51.1 °F 93% 30.04 in 5.0 mi North 10.4 mph - 0.03 in Rain Light Rain
7:58 PM 53.1 °F - 52.0 °F 96% 30.04 in 5.0 mi North 8.1 mph - 0.01 in Rain Light Rain
8:58 PM 52.0 °F - 51.1 °F 97% 30.05 in 9.0 mi NNW 10.4 mph - 0.00 in   Overcast
9:58 PM 52.0 °F - 51.1 °F 97% 30.04 in 9.0 mi North 13.8 mph 20.7 mph 0.02 in   Overcast
10:58 PM 50.0 °F - 48.0 °F 93% 30.05 in 9.0 mi North 17.3 mph - N/A   Overcast
11:37 PM 48.2 °F - 46.4 °F 93% 30.07 in 2.5 mi North 18.4 mph - 0.00 in Rain Light Rain
11:58 PM 44.1 °F 37.1 °F 42.1 °F 93% 30.07 in 2.5 mi North 15.0 mph 21.9 mph 0.00 in Rain Light Rain